GW1854 Weather Reports


time (UTC)temp
F
wind
direction
speed
knots
gust
knots
rain 1hr
in
rain 24hr
in
rain mn
in
humidity
%
barometer
mb
20260503034122 63 203 0.0 0.0 0.00 0.00 0.00 32 1010.3
20260503033122 64 270 0.0 0.0 0.00 0.00 0.00 31 1010.3
20260503032122 65 248 0.0 0.0 0.00 0.00 0.00 29 1010.3
20260503031122 66 270 0.0 0.0 0.00 0.00 0.00 28 1010.3
20260503030122 67 203 0.0 0.0 0.00 0.00 0.00 27 1010.5
20260503025123 68 247 0.9 6.1 0.00 0.00 0.00 26 1010.4
20260503024143 68 247 0.0 7.8 0.00 0.00 0.00 26 1010.4
20260503023122 69 269 3.5 9.6 0.00 0.00 0.00 25 1010.4
20260503022122 69 272 5.2 11.3 0.00 0.00 0.00 26 1010.4
20260503021122 69 272 6.1 15.6 0.00 0.00 0.00 26 1010.4
20260503020122 70 270 4.3 13.9 0.00 0.00 0.00 26 1010.5
20260503015122 70 260 5.2 15.6 0.00 0.00 0.00 27 1010.5
20260503014122 70 257 4.3 11.3 0.00 0.00 0.00 28 1010.5
20260503013122 71 265 5.2 12.2 0.00 0.00 0.00 27 1010.7
20260503012122 71 270 5.2 12.2 0.00 0.00 0.00 27 1010.7
20260503011122 71 265 4.3 12.2 0.00 0.00 0.00 27 1010.8
20260503010144 71 258 7.0 15.6 0.00 0.00 0.00 27 1010.9
20260503005144 72 260 5.2 12.2 0.00 0.00 0.00 26 1011.0
20260503004122 73 245 0.9 7.8 0.00 0.00 0.00 26 1011.0
20260503003123 73 248 5.2 12.2 0.00 0.00 0.00 26 1011.4
20260503002122 73 267 5.2 13.0 0.00 0.00 0.00 26 1011.5
20260503001122 71 245 8.7 17.4 0.00 0.00 0.00 26 1011.9
20260503000122 72 259 7.8 17.4 0.00 0.00 0.00 26 1011.9
20260502235144 73 232 6.1 20.0 0.00 0.00 0.00 26 1012.0
20260502234123 71 236 7.8 19.1 0.00 0.00 0.00 26 1012.0
20260502233122 72 247 7.0 19.1 0.00 0.00 0.00 26 1012.4
20260502232123 74 256 5.2 16.5 0.00 0.00 0.00 25 1012.5
20260502231122 75 272 5.2 12.2 0.00 0.00 0.00 26 1012.9
20260502230122 73 256 7.8 20.0 0.00 0.00 0.00 25 1013.0
20260502225122 73 261 7.0 20.0 0.00 0.00 0.00 25 1013.2
20260502224122 74 258 7.8 19.1 0.00 0.00 0.00 25 1013.2
20260502223123 72 252 6.1 16.5 0.00 0.00 0.00 26 1013.4
20260502222123 73 272 3.5 14.8 0.00 0.00 0.00 26 1013.7
20260502221123 72 232 7.0 16.5 0.00 0.00 0.00 26 1013.9
20260502220122 74 249 5.2 15.6 0.00 0.00 0.00 25 1014.0
20260502215122 73 234 4.3 16.5 0.00 0.00 0.00 27 1014.2
20260502214126 73 255 6.1 17.4 0.00 0.00 0.00 25 1014.2
20260502213123 72 279 6.1 21.7 0.00 0.00 0.00 25 1014.3
20260502212123 73 288 3.5 15.6 0.00 0.00 0.00 25 1014.5
20260502211123 71 256 6.1 17.4 0.00 0.00 0.00 26 1014.8
20260502210123 72 266 8.7 20.9 0.00 0.00 0.00 26 1014.9
20260502205125 72 258 6.1 16.5 0.00 0.00 0.00 26 1015.0
20260502204123 70 260 7.0 18.2 0.00 0.00 0.00 27 1015.0
20260502203126 71 279 7.0 20.0 0.00 0.00 0.00 26 1015.4
20260502202123 71 283 3.5 12.2 0.00 0.00 0.00 26 1015.7
20260502201144 69 281 7.0 17.4 0.00 0.00 0.00 26 1015.7
20260502200127 69 256 7.8 18.2 0.00 0.00 0.00 27 1016.0
20260502195123 71 281 6.1 15.6 0.00 0.00 0.00 27 1016.0
20260502194147 68 296 8.7 21.7 0.00 0.00 0.00 28 1016.0
20260502193123 68 296 6.1 17.4 0.00 0.00 0.00 28 1016.3
20260502192123 69 276 7.8 20.0 0.00 0.00 0.00 28 1016.5
20260502191123 67 277 7.8 20.0 0.00 0.00 0.00 29 1016.5
20260502190123 68 277 7.8 16.5 0.00 0.00 0.00 29 1016.9
20260502185123 67 273 10.4 23.5 0.00 0.00 0.00 30 1017.0
20260502184123 67 293 7.0 22.6 0.00 0.00 0.00 30 1017.0
20260502183126 67 263 7.8 20.0 0.00 0.00 0.00 29 1017.0
20260502182123 67 238 5.2 18.2 0.00 0.00 0.00 30 1017.3
20260502181123 67 216 1.7 12.2 0.00 0.00 0.00 30 1017.5
20260502180144 66 257 6.1 14.8 0.00 0.00 0.00 32 1017.8
20260502170123 65 246 0.9 11.3 0.00 0.00 0.00 34 1018.4
20260502164123 62 254 1.7 9.6 0.00 0.00 0.00 37 1018.5
20260502163126 62 238 0.9 11.3 0.00 0.00 0.00 39 1018.5
20260502162123 61 250 1.7 11.3 0.00 0.00 0.00 38 1018.5
20260502161123 60 205 0.9 9.6 0.00 0.00 0.00 43 1018.7
20260502160123 58 218 0.9 7.8 0.00 0.00 0.00 45 1018.8
20260502152127 55 222 0.9 7.8 0.00 0.00 0.00 51 1019.0
20260502151123 54 248 0.0 7.0 0.00 0.00 0.00 53 1019.2
20260502150144 53 227 0.9 7.0 0.00 0.00 0.00 54 1019.2
20260502140123 48 180 0.0 4.3 0.00 0.00 0.00 63 1019.4
20260502130126 42 191 0.0 1.7 0.00 0.00 0.00 72 1019.3
20260502123123 40 158 0.0 0.0 0.00 0.00 0.00 77 1019.2
20260502122123 39 150 0.0 3.5 0.00 0.00 0.00 79 1019.2
20260502121123 39 180 0.0 0.0 0.00 0.00 0.00 80 1019.0
20260502120123 38 203 0.0 0.0 0.00 0.00 0.00 81 1019.0
20260502115126 38 180 0.0 0.0 0.00 0.00 0.00 81 1019.0
20260502114123 38 180 0.0 0.0 0.00 0.00 0.00 81 1019.0
20260502113123 38 180 0.0 0.0 0.00 0.00 0.00 82 1019.0
20260502112123 38 158 0.0 0.0 0.00 0.00 0.00 81 1019.0
20260502111123 39 180 0.0 0.0 0.00 0.00 0.00 80 1019.0
20260502110123 39 203 0.9 6.1 0.00 0.00 0.00 80 1018.9
20260502105123 39 180 0.0 0.0 0.00 0.00 0.00 80 1019.0
20260502104127 40 203 0.0 0.0 0.00 0.00 0.00 80 1019.0
20260502103123 40 173 0.0 5.2 0.00 0.00 0.00 80 1018.9
20260502102126 40 180 0.0 0.0 0.00 0.00 0.00 79 1018.9
20260502101123 40 203 0.0 0.0 0.00 0.00 0.00 79 1018.8
20260502100144 40 202 0.0 2.6 0.00 0.00 0.00 79 1018.9
20260502091126 41 203 0.0 0.0 0.00 0.00 0.00 78 1018.7
20260502090123 41 225 0.0 0.0 0.00 0.00 0.00 78 1018.7
20260502071126 45 326 0.0 2.6 0.00 0.00 0.00 68 1018.4
20260502070123 45 315 0.0 0.0 0.00 0.00 0.00 68 1018.3
20260502065126 45 270 0.0 0.0 0.00 0.00 0.00 67 1018.3
20260502064123 46 315 0.0 0.0 0.00 0.00 0.00 66 1018.3
20260502063126 48 338 0.0 0.0 0.00 0.00 0.00 65 1018.3
20260502062144 48 338 0.0 0.0 0.00 0.00 0.00 64 1018.0
20260502061123 49 338 0.0 0.0 0.00 0.00 0.00 63 1018.2
20260502060123 50 315 0.0 4.3 0.00 0.00 0.00 63 1018.0
20260502055123 50 315 0.0 0.0 0.00 0.00 0.00 63 1018.0
20260502054123 50 331 0.0 5.2 0.00 0.00 0.00 62 1018.0
20260502053123 51 320 0.9 7.0 0.00 0.00 0.00 61 1018.0
20260502052126 51 315 0.0 0.0 0.00 0.00 0.00 60 1017.9
20260502051123 52 308 0.9 5.2 0.00 0.00 0.00 60 1017.8
20260502050123 52 315 1.7 7.0 0.00 0.00 0.00 59 1017.9
20260502045123 52 322 0.9 7.0 0.00 0.00 0.00 58 1017.5
20260502044144 52 326 0.0 7.0 0.00 0.00 0.00 58 1017.5
20260502043126 53 338 0.0 0.0 0.00 0.00 0.00 57 1017.5
20260502042123 53 307 1.7 7.0 0.00 0.00 0.00 55 1017.5
20260502041126 54 348 1.7 7.0 0.00 0.00 0.00 54 1017.4
20260502040123 54 339 1.7 8.7 0.00 0.00 0.00 53 1017.4
20260502035123 55 328 2.6 8.7 0.00 0.00 0.00 52 1017.3